Torna al catalogo

CZ-4 DEB

AttivoSSO
NORAD 26310·DEBRIS·🇨🇳 China

Lanciato Oct 14, 1999 da Taiyuan Satellite Launch Center

Loading…

Prossimi Passaggi (prossime 24 ore)

TLE

AggiornatoSource: Space-Track

Epoca: Sep 14, 2026, 10:37 UTC

1 26310U 99057GT  26257.44265128  .00000833  00000-0  22315-3 0  9996
2 26310  98.5228 325.7482 0089471 115.0350 258.6538 14.48573847390137

Traccia CZ-4 DEB in tempo reale con AllMySat

Download on the App Store